Tracking 29892 objects as of 21-Nov-2024
HD Live streaming from Space Station
objects crossing your sky now

STARLINK-31294

Track STARLINK-31294 now!
10-day predictions
STARLINK-31294 is classified as:


NORAD ID: 58949
Int'l Code: 2024-027U
Perigee: 481.5 km
Apogee: 483.2 km
Inclination: 53.2 °
Period: 94.1 minutes
Semi major axis: 6853 km
RCS: Unknown
Launch date: February 10, 2024
Source: United States (US)
Launch site: AIR FORCE WESTERN TEST RANGE (AFWTR)
Your satellite tracking list
Your tracking list is empty




NASA's NSSDC Master Catalog

Two Line Element Set (TLE):
1 58949U 24027U   24325.89549932 -.00001165  00000-0 -27229-4 0  9996
2 58949  53.1587 350.6761 0001286  80.1974 279.9172 15.30199264 44634
Source of the keplerian elements: AFSPC